Preview of NWS' New Version of Forecast
This preview is not operational and should not be used for support decisions.

Regional Weather Roundup (RWR)

Issued by National Weather Service (NWS)

                            
000
ASUS43 KLSX 181207
RWRMO 

WEATHER SUMMARY FOR MISSOURI
NATIONAL WEATHER SERVICE SPRINGFIELD MO
600 AM CST MON FEB 18 2019

NOTE: "FAIR" INDICATES FEW OR NO CLOUDS BELOW 12,000 FEET WITH NO
       SIGNIFICANT WEATHER AND/OR OBSTRUCTIONS TO VISIBILITY.
       CURRENT SKY AND/OR WEATHER CONDITIONS ARE NOT AVAILABLE FOR
       CHILLICOTHE AND FARMINGTON.

MOZ001>031-035>038-043-044-053-054-181300-
...NORTHERN AND WESTERN MISSOURI...
  
CITY           SKY/WX    TMP DP  RH WIND       PRES   REMARKS
KANSAS CTY INT PTCLDY     9   6  88 W8        30.34R WCI  -3          
6HR MIN TEMP:   9; 6HR MAX TEMP:  17;                                

KANSAS C DTWN  PTCLDY    15   9  76 W6        30.36R WCI   6          
6HR MIN TEMP:  14; 6HR MAX TEMP:  21;                                

LEE'S SUMMIT   PTCLDY    13  11  92 W7        30.33R WCI   3          
6HR MIN TEMP:  13; 6HR MAX TEMP:  20;                                

ST JOSEPH      PTCLDY    11   9  92 NW6       30.34R WCI   1          
6HR MIN TEMP:   9; 6HR MAX TEMP:  19;                                

CHILLICOTHE      N/A     20  16  84 N6G17     30.32R WCI  12          
6HR MIN TEMP:  18; 6HR MAX TEMP:  24;                                

KIRKSVILLE     CLOUDY    20  19  96 W8        30.25R WCI  10          
6HR MIN TEMP:  20; 6HR MAX TEMP:  24;                                

     
$$
MOZ066>068-077>081-088>096-101>105-181300-
...SOUTHWEST MISSOURI...
  
CITY           SKY/WX    TMP DP  RH WIND       PRES   REMARKS
SPRINGFIELD    CLEAR     18  12  77 NW6       30.29R WCI  10          
6HR MIN TEMP:  16; 6HR MAX TEMP:  24;                                

JOPLIN         CLEAR     17  13  84 N8        30.34R WCI   7          
6HR MIN TEMP:  17; 6HR MAX TEMP:  23;                                

BRANSON        PTCLDY    19  16  86 NW8       30.28R WCI   9          
               
$$
MOZ032>034-039>042-045>050-055>058-069>072-181300-
...CENTRAL MISSOURI...  
  
CITY           SKY/WX    TMP DP  RH WIND       PRES   REMARKS
COLUMBIA       CLOUDY    22  14  71 NW15      30.26R WCI   9          
6HR MIN TEMP:  22; 6HR MAX TEMP:  26;                                

JEFFERSON CITY CLOUDY    25  16  68 NW7       30.29R WCI  17          
6HR MIN TEMP:  25; 6HR MAX TEMP:  28;                                

ROLLA          CLOUDY    22  14  71 NW13      30.24R WCI  10          
6HR MIN TEMP:  22; 6HR MAX TEMP:  25;                                

SEDALIA        PTCLDY    17  14  88 W8        30.30R WCI   7          
6HR MIN TEMP:  17; 6HR MAX TEMP:  24;                                

WHITEMAN AFB   PTCLDY    13  11  89 W8        30.30R WCI   2          
WARRENSBURG    CLEAR     16  12  86 W7        30.33R WCI   6          
OSAGE BEACH    CLOUDY    21  16  81 NW7       30.30R WCI  12          
               
$$
MOZ051-052-059>065-181300-
...EAST CENTRAL MISSOURI...
  
CITY           SKY/WX    TMP DP  RH WIND       PRES   REMARKS
ST LOUIS INTL  FLURRIES  27  18  69 W15G25    30.24R WCI  15          
6HR MIN TEMP:  27; 6HR MAX TEMP:  30; 6HR PCP: TRACE;                

SPIRIT OF STL  CLOUDY    27  18  69 W14G22    30.25R WCI  16          
6HR MIN TEMP:  27; 6HR MAX TEMP:  30;                                

ST CHARLES     CLOUDY    28  20  71 NW15      30.24R WCI  16          
6HR MIN TEMP:  28; 6HR MAX TEMP:  30;                                

                   
$$
MOZ072>076-082>087-097>100-106>115-181300-
...SOUTH CENTRAL AND SOUTHEAST MISSOURI...
  
CITY           SKY/WX    TMP DP  RH WIND       PRES   REMARKS
CAPE GIRARDEAU FAIR      26  18  71 NW8       30.27R WCI  18          
6HR MIN TEMP:  26; 6HR MAX TEMP:  32;                                

FARMINGTON     CLOUDY    25  18  74 NW8       30.23R WCI  16          
6HR MIN TEMP:  23; 6HR MAX TEMP:  26;                                

POPLAR BLUFF   FAIR      25  20  81 W5        30.28R WCI  19          
6HR MIN TEMP:  25; 6HR MAX TEMP:  31;                                

WEST PLAINS    CLEAR     20  15  81 NW7       30.24R WCI  11          
6HR MIN TEMP:  19; 6HR MAX TEMP:  25;                                

                                       
$$